Portada
METAR-TAF:

METAR-TAF

Aeroports :

Bandar Lengeh, Iran

latitud: 26-35N, longitud: 054-50E, altitud: 14 m

Observació

L'informe es va fer fa 29 minuts, a les 21:00 UTC
Vent calma
Temperatura 31°C
Humitat 71%
Pressió 997 hPa
Visibilitat: 4000 m
calitja

METAR: OIBL 182100Z 00000KT 4000 HZ NSC 31/25 Q0997

Hora: 01:59 (21:29 UTC)


TAF: manca

Observacions i pronòstics meteorològics de més de 4000 aeroports (METAR i TAF).

Les estacions disponibles són els punts grocs i vermells al mapa.

Posi el ratolí al punt desitjat per veure el nom de l'estació.

Feu clic per veure les observacions i els pronòstics meteorològics.

Per canviar el mapa: feu clic els botons verds amb una creu de color negre per apropar; al botó verd amb un guió per allunyar la imatge; o en les fletxes verdes per a mapes adjacents.


METAR-TAF: